SCP
0 0 0 0 0 0 0 0 0 0 0 0 0 0 0 0 0 0 0 0 0 0 0 0 0 0 0 0 0 0 0 0 0 0 0 0 0 0 0 0 0 0 0
0 0 0 0 0 0 0 0 0 0 0 0 0 0 0 0 0 0 0 0 0 0 0 0 0 0 0 0 0 0 0 0 0 0 0 0 0 0 0 0 0 0 0
0 0 0 0 0 0 0 0 0 0 0 0 0 0 0 0 0 0 0 0 0 0 0 0 0 0 0 0 0 0 0 0 0 0 0 0 0 0 0 0 0 0 0
0 0 0 0 0 0 0 0 0 0 0 0 0 0 0 0 0 0 0 0 0 0 0 0 0 0 0 0 0 0 0 0 0 0 0 0 0 0 0 0 0 0 0
0 0 0 0 0 0 0 0 0 0 0 0 0 0 0 0 0 0 0 0 0 0 0 0 0 0 0 0 0 0 0 0 0 0 0 0 0 0 0 0 0 0 0
0 0 0 0 0 0 0 0 0 0 0 0 0 0 0 0 0 0 0 0 0 0 0 0 0 0 0 0 0 0 0 0 0 0 0 0 0 0 0 0 0 0 0
0 0 0 0 0 0 0 0 0 0 0 0 0 0 0 0 0 0 0 0 0 0 0 0 0 0 0 0 0 0 0 0 0 0 0 0 0 0 0 0 0 0 0
0 0 0 0 0 0 0 0 0 0 0 0 0 0 0 0 0 0 0 0 0 0 0 0 0 0 0 0 0 0 0 0 0 0 0 0 0 0 0 0 0 0 0
0 0 0 0 0 0 0 0 0 0 0 0 0 0 0 0 0 0 0 0 0 0 0 0 0 0 0 0 0 0 0 0 0 0 0 0 0 0 0 0 0 0 0
0 0 0 0 0 0 0 0 0 0 0 0 0 0 0 0 0 0 0 0 0 0 0 0 0 0 0 0 0 0 0 0 0 0 0 0 0 0 0 0 0 0 0
0 0 0 0 0 0 0 0 0 0 0 0 0 0 0 0 0 0 0 0 0 0 0 0 0 0 0 0 0 0 0 0 0 0 0 0 0 0 0 0 0 0 0
0 0 0 0 0 0 0 0 0 0 0 0 0 0 0 0 0 0 0 0 0 0 0 0 0 0 0 0 0 0 0 0 0 0 0 0 0 0 0 0 0 0 0
0 0 0 0 0 0 0 0 0 0 0 0 0 0 0 0 0 0 0 0 0 0 0 0 0 0 0 0 0 0 0 0 0 0 0 0 0 0 0 0 0 0 0
0 0 0 0 0 0 0 0 0 0 0 0 0 0 0 0 0 0 0 0 0 0 0 0 0 0 0 0 0 0 0 0 0 0 0 0 0 0 0 0 0 0 0
0 0 0 0 0 0 0 0 0 0 0 0 0 0 0 0 0 0 0 0 0 0 0 0 0 0 0 0 0 0 0 0 0 0 0 0 0 0 0 0 0 0 0
0 0 0 0 0 0 0 0 0 0 0 0 0 0 0 0 0 0 0 0 0 0 0 0 0 0 0 0 0 0 0 0 0 0 0 0 0 0 0 0 0 0 0
0 0 0 0 0 0 0 0 0 0 0 0 0 0 0 0 0 0 0 0 0 0 0 0 0 0 0 0 0 0 0 0 0 0 0 0 0 0 0 0 0 0 0
0 0 0 0 0 0 0 0 0 0 0 0 0 0 0 0 0 0 0 0 0 0 0 0 0 0 0 0 0 0 0 0 0 0 0 0 0 0 0 0 0 0 0
0 0 0 0 0 0 0 0 0 0 0 0 0 0 0 0 0 0 0 0 0 0 0 0 0 0 0 0 0 0 0 0 0 0 0 0 0 0 0 0 0 0 0
0 0 0 0 0 0 0 0 0 0 0 0 0 0 0 0 0 0 0 0 0 0 0 0 0 0 0 0 0 0 0 0 0 0 0 0 0 0 0 0 0 0 0
0 0 0 0 0 0 0 0 0 0 0 0 0 0 0 0 0 0 0 0 0 0 0 0 0 0 0 0 0 0 0 0 0 0 0 0 0 0 0 0 0 0 0
0 0 0 0 0 0 0 0 0 0 0 0 0 0 0 0 0 0 0 0 0 0 0 0 0 0 0 0 0 0 0 0 0 0 0 0 0 0 0 0 0 0 0
0 0 0 0 0 0 0 0 0 0 0 0 0 0 0 0 0 0 0 0 0 0 0 0 0 0 0 0 0 0 0 0 0 0 0 0 0 0 0 0 0 0 0
0 0 0 0 0 0 0 0 0 0 0 0 0 0 0 0 0 0 0 0 0 0 0 0 0 0 0 0 0 0 0 0 0 0 0 0 0 0 0 0 0 0 0
0 0 0 0 0 0 0 0 0 0 0 0 0 0 0 0 0 0 0 0 0 0 0 0 0 0 0 0 0 0 0 0 0 0 0 0 0 0 0 0 0 0 0
0 0 0 0 0 0 0 0 0 0 0 0 0 0 0 0 0 0 0 0 0 0 0 0 0 0 0 0 0 0 0 0 0 0 0 0 0 0 0 0 0 0 0
Wind_Speed
2 3 4 5 5 6 6 7 7 7 7 7 8 8 8 9 8 8 8 9 10 9 9 10 10 9 8 7 7 7 8 8 15 13 6 6 8 9 10 8 8 9 10
2 3 5 5 6 6 7 7 7 7 7 8 8 9 9 10 9 9 10 10 10 10 9 10 10 9 10 8 7 9 9 9 12 17 11 6 9 8 9 10 9 9 8
3 4 5 6 6 7 7 7 8 8 8 9 9 9 10 10 10 10 10 10 10 10 10 10 10 10 11 9 9 10 9 10 9 13 14 8 7 8 9 9 11 9 10
3 5 6 7 7 7 7 8 8 8 9 9 9 10 10 11 11 10 10 10 10 11 11 11 11 11 12 12 12 12 11 11 10 12 13 10 9 8 7 8 9 8 9
4 6 6 7 7 8 8 8 8 9 9 9 10 11 11 10 10 11 10 10 11 11 11 11 12 17 21 19 15 11 11 11 11 12 13 11 10 7 8 8 11 8 9
5 6 7 8 8 8 8 8 9 9 9 10 10 11 11 10 18 24 20 11 10 10 11 11 12 16 20 26 28 27 22 15 13 12 12 12 12 10 9 9 9 10 10
6 7 8 8 8 8 9 9 9 9 9 10 10 11 11 12 22 26 26 16 10 10 11 11 12 13 19 12 18 25 24 27 26 17 14 13 12 9 9 11 10 11 11
7 8 8 8 8 8 9 9 10 9 9 9 10 11 11 13 24 26 26 16 10 10 10 11 12 12 13 15 13 13 13 14 17 14 12 12 12 10 10 12 12 12 11
8 8 8 7 9 9 10 10 10 9 9 9 10 11 11 14 22 26 26 10 9 10 10 11 12 12 20 25 17 13 14 12 17 24 24 22 24 25 19 10 9 9 10
8 7 7 8 9 10 11 11 9 9 10 10 10 10 12 12 19 25 25 9 9 9 9 10 17 20 23 25 15 12 14 13 11 12 15 17 15 16 21 11 7 9 8
8 8 8 9 9 10 10 9 10 10 10 10 11 11 10 13 18 24 25 12 8 10 10 8 9 21 25 26 22 13 17 17 11 11 10 9 8 8 8 8 7 8 9
8 9 9 9 9 9 10 10 9 9 10 10 11 11 8 10 15 19 25 23 20 12 10 8 10 23 26 26 20 20 25 21 8 8 8 7 7 6 6 7 8 9 9
8 9 9 10 9 9 9 10 9 8 8 9 9 11 10 7 10 22 24 25 25 15 11 19 23 27 25 17 19 24 20 9 7 8 8 7 6 6 5 5 6 6 7
9 9 9 9 9 9 8 8 8 8 9 9 10 11 11 9 8 7 9 11 16 15 12 16 23 23 19 18 17 13 8 7 8 8 7 6 5 5 5 5 5 4 5
9 9 9 8 9 9 8 8 10 8 11 14 11 10 12 12 14 23 18 11 10 11 14 9 7 7 7 7 7 7 6 6 7 6 6 6 6 5 5 4 4 4 5
9 8 8 8 8 8 9 10 15 18 24 26 25 23 17 21 28 28 27 27 27 25 17 8 8 8 8 8 7 7 6 6 6 6 5 5 6 5 5 4 4 5 6
9 9 8 8 9 9 9 10 12 14 19 23 25 26 25 27 28 27 26 26 25 23 11 7 8 8 8 7 7 7 7 6 6 6 6 5 5 5 5 4 4 5 6
9 11 12 8 8 9 9 10 11 13 13 11 15 22 25 26 26 26 26 22 12 10 7 8 8 8 7 7 7 7 7 6 5 5 5 5 5 5 5 5 5 6 6
9 8 8 8 8 9 10 10 10 12 12 12 11 12 20 22 23 23 21 10 9 9 8 8 8 8 7 7 7 7 7 7 6 5 5 5 5 5 5 5 5 9 7
8 16 16 11 9 10 10 10 11 11 12 12 11 10 10 12 10 10 9 8 9 9 8 8 8 8 7 7 7 7 7 7 6 6 5 5 5 5 6 6 5 5 5
8 11 19 14 10 10 10 11 11 11 11 11 11 13 21 13 10 10 10 9 9 9 9 8 8 8 7 7 7 7 8 7 6 6 6 5 5 5 5 5 6 6 5
8 8 9 10 11 10 11 10 10 11 11 12 11 12 22 13 9 10 10 10 9 8 8 8 8 7 7 7 7 7 7 7 6 6 6 6 5 6 5 5 5 5 5
8 10 11 11 10 15 14 10 10 10 11 11 11 11 11 10 10 10 11 10 9 9 8 8 8 8 7 7 7 7 8 7 7 6 6 6 6 6 6 6 7 7 6
9 11 12 11 11 11 11 11 10 11 11 11 11 11 11 10 10 12 11 10 9 9 9 8 9 10 12 10 8 7 7 8 8 7 8 8 7 7 6 7 7 8 7
9 11 11 11 11 11 11 11 11 11 11 11 11 11 11 11 11 11 11 10 11 10 11 11 9 9 11 13 12 10 14 18 17 11 8 8 9 9 8 8 8 8 8
10 11 11 10 10 11 11 11 11 11 11 11 11 10 11 11 11 11 11 11 10 10 10 10 11 12 13 12 13 17 20 20 19 19 11 7 9 8 9 8 10 9 9
Wind_Direction
313 312 310 303 300 297 292 288 289 290 292 290 289 287 285 283 281 278 277 276 273 272 270 268 266 264 263 258 256 255 254 254 270 277 259 254 256 262 270 268 266 262 261
305 307 301 298 298 296 293 294 296 295 294 291 289 286 285 286 284 282 282 281 279 279 278 277 277 277 272 269 263 260 259 254 263 275 275 260 254 256 258 259 265 264 253
305 301 298 298 297 294 293 295 295 293 291 288 287 286 286 284 282 279 277 277 276 277 279 279 279 279 277 273 269 267 264 264 259 268 275 267 257 253 259 260 258 259 259
299 294 291 289 288 288 289 289 288 287 288 287 285 285 284 282 280 278 276 275 275 276 276 275 275 274 274 273 271 268 265 263 259 262 269 269 262 250 248 255 259 250 255
294 291 286 285 285 284 283 283 283 283 285 285 285 284 281 281 281 280 277 276 275 276 275 273 273 275 275 278 277 271 264 262 261 261 264 266 262 253 249 247 256 255 251
294 289 287 285 283 280 280 282 283 284 284 285 285 286 285 286 292 295 295 286 278 279 281 279 278 281 282 284 285 286 282 277 273 268 268 265 265 257 254 250 255 258 260
287 284 285 284 284 284 287 290 288 287 285 286 286 286 286 287 294 298 298 296 286 282 281 282 284 282 289 282 283 285 284 282 279 275 273 271 271 263 257 258 255 255 259
285 284 285 287 291 294 294 292 290 287 286 287 288 287 287 289 297 299 301 297 286 280 277 277 278 279 278 283 277 274 271 273 273 273 264 264 265 260 249 253 257 259 258
285 286 291 297 299 298 295 291 290 290 289 286 286 287 288 290 296 300 300 290 284 282 279 278 282 280 283 289 287 281 279 275 276 274 269 268 266 266 261 253 246 250 257
288 292 296 296 294 293 290 290 290 289 288 289 288 287 288 289 297 301 302 292 286 285 281 276 284 286 289 292 287 280 282 282 276 275 272 272 272 271 270 257 246 255 260
296 297 294 291 290 289 289 289 290 291 291 290 290 288 286 289 299 301 300 297 285 286 287 284 279 289 292 293 292 284 281 284 277 271 268 262 258 253 252 245 233 239 248
296 295 293 291 292 295 292 291 290 292 294 293 292 291 285 287 293 296 298 299 299 294 290 287 283 291 294 295 294 289 291 293 284 280 273 267 260 255 248 241 238 236 236
295 294 293 294 292 291 291 294 295 292 291 293 293 293 292 285 287 296 299 300 300 296 287 290 295 298 300 299 293 293 294 288 279 275 272 269 260 255 251 248 243 240 241
295 294 294 296 295 293 291 292 293 292 292 292 293 294 294 291 285 283 281 289 293 293 290 289 293 295 293 290 291 292 280 269 274 271 271 270 267 261 254 243 240 237 241
292 293 295 293 294 295 291 287 290 282 286 294 291 289 294 296 293 298 300 295 289 285 294 288 284 287 281 279 280 278 274 274 276 265 265 268 269 266 259 244 237 234 234
294 294 293 293 293 292 294 295 290 291 297 298 297 296 295 296 302 304 304 304 304 302 301 293 291 287 286 287 288 289 283 279 273 266 262 263 266 263 258 244 236 237 241
289 292 293 291 293 293 294 296 299 299 296 297 298 300 301 304 305 307 307 306 305 305 298 289 287 285 285 284 284 285 284 279 275 270 266 263 263 262 259 251 243 241 242
291 294 295 290 289 290 291 291 293 297 300 296 296 299 304 306 308 308 308 310 302 297 279 281 283 283 282 282 282 283 284 282 276 272 266 261 257 259 257 251 245 243 243
293 290 288 286 287 288 289 290 290 291 293 296 297 299 303 307 307 305 307 299 293 290 284 281 280 281 281 280 279 279 279 278 275 270 265 259 255 254 255 251 245 249 247
289 293 298 295 292 291 290 290 291 292 294 295 297 299 303 302 300 301 298 289 285 285 284 283 282 280 280 278 277 276 275 274 273 269 264 259 255 252 253 249 245 245 244
289 292 297 297 290 288 288 289 290 291 292 294 294 298 304 304 300 299 298 293 287 286 285 283 282 281 278 275 273 273 271 270 267 265 262 258 254 252 251 247 243 241 241
289 290 290 289 290 289 290 288 290 291 292 293 295 300 305 301 295 294 293 292 289 286 282 281 281 278 275 274 274 275 273 271 267 262 260 256 252 251 250 246 244 239 236
289 291 292 290 290 293 296 292 290 291 292 293 296 298 298 296 295 295 294 293 290 288 285 279 280 279 273 271 270 270 271 270 267 262 258 256 251 250 248 246 244 242 239
289 291 292 293 293 291 291 292 292 292 293 294 295 296 297 296 295 295 295 293 291 289 288 283 278 277 276 276 273 268 265 266 266 259 250 251 251 250 247 246 244 241 239
292 292 293 293 293 293 292 292 292 293 294 296 297 298 298 297 297 297 296 294 291 289 290 288 282 279 277 275 273 269 270 274 274 268 252 247 248 245 245 245 242 240 236
293 294 294 294 293 292 292 292 293 295 296 296 296 296 297 297 297 297 297 295 293 292 292 290 284 283 281 279 274 274 277 276 275 272 261 249 244 243 240 241 239 237 236